Regional Weather Roundup
Issued by NWS State College, PA

Home | Current Version | Previous Version | Graphics & Text | Print | Product List | Glossary On
Versions: 1 2 3 4 5 6 7 8 9 10 11 12 13 14 15 16 17 18 19 20 21 22 23 24 25 26 27 28 29 30 31 32 33 34 35 36 37 38 39 40 41 42 43 44 45 46 47 48 49 50
000
ASUS41 KCTP 061303
RWRCTP

REGIONAL WEATHER ROUNDUP
NATIONAL WEATHER SERVICE STATE COLLEGE PA
800 AM EST TUE DEC 06 2016

Note: "fair" indicates few or no clouds below 12,000 feet with no
significant weather and/or obstructions to visibility.

* = STATION THAT DOES NOT REPORT PRECIPITATION /E.G. RAIN...SNOW...ETC/
    THUNDER OR FOG.

PAZ002>004-007>009-013>016-020>023-029>032-061400-
WESTERN PENNSYLVANIA

CITY           SKY/WX    TMP DP  RH WIND       PRES   REMARKS
ERIE           PTCLDY    37  28  70 E12G20    29.93F
MEADVILLE      PTCLDY    33  26  75 E13       29.90F
FRANKLIN*        N/A     32  25  74 E16G22    29.92F
NEW CASTLE     FAIR      36  27  69 E10G18    29.91F
BEAVER COUNTY  PTCLDY    34  27  75 SE14G21   29.88F
BUTLER*        CLOUDY    36  25  64 E14G22    29.93F
PITTSBURGH INT CLOUDY    37  28  70 E14       29.88F
PITTSBURGH     CLOUDY    37  26  64 E13       29.89F
INDIANA*       CLEAR     36  28  75 SE13G20   29.99F
LATROBE        CLOUDY    37  28  70 SE15      29.94S
WASHINGTON CO* CLOUDY    36  28  75 E7        29.88F
$$

PAZ004>006-010>012-017>019-024>028-033>037-041-042-045-046-049>053-061400-
CENTRAL PENNSYLVANIA

CITY           SKY/WX    TMP DP  RH WIND       PRES   REMARKS
BRADFORD       CLOUDY    31  27  85 E9        29.98F
DUBOIS         PTCLDY    32  26  78 E13       29.96F
CLEARFIELD     PTCLDY    29  27  92 E8        30.03S
JOHNSTOWN      CLOUDY    32  26  78 SE9G18    29.95F
ALTOONA        MOCLDY    33  28  81 E5        30.03F
STATE COLLEGE  CLEAR     30  28  93 NE7       30.04F
WILLIAMSPORT   CLOUDY    32  27  81 CALM      30.10F
SELINSGROVE    CLOUDY    27  27 100 N3        30.11S FOG
FT INDIANTOWN  MOCLDY    28  28 100 E1        30.09F
CAPITAL CITY   CLOUDY    35  29  78 E3        30.09F
HARRISBURG     CLOUDY    33  31  92 NE3       30.09F
YORK           CLOUDY    32  31  96 CALM      30.08F
$$

PAZ038>040-043-044-047-048-054-055-060>062-067>071-061400-
EASTERN PENNSYLVANIA

CITY           SKY/WX    TMP DP  RH WIND       PRES   REMARKS
SCRANTON       CLOUDY    30  26  85 E6        30.10F
MOUNT POCONO   CLEAR     23  21  92 CALM      30.06F
ALLENTOWN      PTCLDY    28  25  88 CALM      30.13S
QUAKERTOWN*    MOSUNNY   27  27 100 CALM      30.13R
READING        PTCLDY    31  27  85 CALM      30.11S
LANCASTER      PTCLDY    30  30 100 E6        30.10F FOG
COATESVILLE    CLOUDY    36  28  75 E7        30.12R
POTTSTOWN      MOCLDY    28  26  92 CALM      30.14S
BLUE BELL      CLOUDY    30  30 100 CALM      30.12R
DOYLESTOWN     CLOUDY    35  29  78 CALM      30.12S
WILLOW GROVE   NOT AVBL
NORTH PHILA    CLOUDY    35  29  78 NE3       30.15R
PHILADELPHIA   CLOUDY    39  30  70 NE7       30.14S
$$




USA.gov is the U.S. government's official web portal to all federal, state and local government web resources and services.